Location: Fours
(44.3167°N, 6.7000°E)
Time: 05:55:01
(UTC+00:00)

ERS-2 - Pass Details

Date: 30 November 2020
Orbit: 492 x 498 km, 98.6° (Epoch: 27 January)

Event Time Altitude Azimuth Distance (km) Brightness Sun altitude
Exits shadow 16:56:44 10° 34° (NE) 1,689 4.3 -10.7°
Maximum altitude 17:00:00 32° 98° (E) 883 2.9 -11.3°
Drops below altitude 10° 17:03:18 10° 163° (SSE) 1,697 4.8 -11.8°
Sets 17:05:31 0° 174° (S) 2,575 5.9 -12.2°
